Time,TemperatureF,DewpointF,PressureIn,WindDirection,WindDirectionDegrees,WindSpeedMPH,WindSpeedGustMPH,Humidity,HourlyPrecipIn,Conditions,Clouds,dailyrainin,SoftwareType,DateUTC
2013-06-19 00:00:00,52.9,43.0,30.06,ENE,73,0.0,3.0,69,0.00,,---,0.09,VWS V14.01,2013-06-19 04:00:00,
2013-06-19 00:01:00,49.7,43.5,30.06,ENE,73,0.0,0.0,79,0.00,,---,0.00,VWS V14.01,2013-06-19 04:01:00,
2013-06-19 00:02:00,49.6,43.4,30.06,ENE,74,0.0,0.0,79,0.00,,---,0.00,VWS V14.01,2013-06-19 04:02:00,
2013-06-19 00:07:00,49.2,43.3,30.06,ENE,74,0.0,0.0,80,0.00,,---,0.00,VWS V14.01,2013-06-19 04:07:00,
2013-06-19 00:13:00,48.9,43.3,30.06,ENE,73,0.0,0.0,81,0.00,,---,0.00,VWS V14.01,2013-06-19 04:13:00,
2013-06-19 00:18:00,48.9,43.7,30.06,ENE,73,0.0,0.0,82,0.00,,---,0.00,VWS V14.01,2013-06-19 04:18:00,
2013-06-19 00:23:00,48.8,43.2,30.06,ENE,73,0.0,0.0,81,0.00,,---,0.00,VWS V14.01,2013-06-19 04:23:00,
2013-06-19 00:28:00,48.3,43.1,30.06,ENE,74,0.0,0.0,82,0.00,,---,0.00,VWS V14.01,2013-06-19 04:28:00,
2013-06-19 00:33:00,47.7,42.5,30.06,ENE,74,0.0,0.0,82,0.00,,---,0.00,VWS V14.01,2013-06-19 04:33:00,
2013-06-19 00:38:00,47.2,42.3,30.06,ENE,74,0.0,0.0,83,0.00,,---,0.00,VWS V14.01,2013-06-19 04:38:00,
2013-06-19 00:43:00,46.7,42.4,30.06,ENE,74,0.0,0.0,85,0.00,,---,0.00,VWS V14.01,2013-06-19 04:43:00,
2013-06-19 00:48:00,46.6,42.9,30.06,ENE,74,0.0,0.0,87,0.00,,---,0.00,VWS V14.01,2013-06-19 04:48:00,
2013-06-19 00:53:00,46.9,43.2,30.06,ENE,74,0.0,0.0,87,0.00,,---,0.00,VWS V14.01,2013-06-19 04:53:00,
2013-06-19 00:58:00,47.2,43.2,30.06,NNE,15,0.0,0.0,86,0.00,,---,0.00,VWS V14.01,2013-06-19 04:58:00,
2013-06-19 01:00:00,49.7,43.5,30.06,ENE,73,0.0,0.0,79,0.00,,---,0.00,VWS V14.01,2013-06-19 05:00:00,
2013-06-19 01:03:00,47.2,43.5,30.06,North,4,1.0,2.0,87,0.00,,---,0.00,VWS V14.01,2013-06-19 05:03:00,
2013-06-19 01:08:00,47.1,43.4,30.06,North,11,2.0,2.0,87,0.00,,---,0.00,VWS V14.01,2013-06-19 05:08:00,
2013-06-19 01:13:00,46.9,43.2,30.06,North,11,1.0,2.0,87,0.00,,---,0.00,VWS V14.01,2013-06-19 05:13:00,
2013-06-19 01:18:00,46.9,43.2,30.06,NE,53,1.0,2.0,87,0.00,,---,0.00,VWS V14.01,2013-06-19 05:18:00,
2013-06-19 01:24:00,47.2,43.8,30.06,NE,53,0.0,2.0,88,0.00,,---,0.00,VWS V14.01,2013-06-19 05:24:00,
2013-06-19 01:29:00,47.1,43.4,30.07,NE,53,0.0,2.0,87,0.00,,---,0.00,VWS V14.01,2013-06-19 05:29:00,
2013-06-19 01:34:00,46.7,43.0,30.07,NE,53,0.0,2.0,87,0.00,,---,0.00,VWS V14.01,2013-06-19 05:34:00,
2013-06-19 01:39:00,46.2,42.8,30.07,NE,53,0.0,2.0,88,0.00,,---,0.00,VWS V14.01,2013-06-19 05:39:00,
2013-06-19 01:44:00,45.8,42.8,30.07,NE,53,0.0,2.0,89,0.00,,---,0.00,VWS V14.01,2013-06-19 05:44:00,
2013-06-19 01:49:00,45.5,42.5,30.07,NE,53,0.0,2.0,89,0.00,,---,0.00,VWS V14.01,2013-06-19 05:49:00,
2013-06-19 01:54:00,45.1,42.3,30.07,NE,53,0.0,2.0,90,0.00,,---,0.00,VWS V14.01,2013-06-19 05:54:00,
2013-06-19 01:59:00,44.9,42.2,30.07,NE,53,0.0,2.0,90,0.00,,---,0.00,VWS V14.01,2013-06-19 05:59:00,
2013-06-19 02:00:00,47.2,43.2,30.06,North,4,1.0,1.0,86,0.00,,---,0.00,VWS V14.01,2013-06-19 06:00:00,
2013-06-19 02:04:00,45.0,42.5,30.07,NE,53,0.0,0.0,91,0.00,,---,0.00,VWS V14.01,2013-06-19 06:04:00,
2013-06-19 02:09:00,44.7,42.0,30.07,NE,53,0.0,0.0,90,0.00,,---,0.00,VWS V14.01,2013-06-19 06:09:00,
2013-06-19 02:14:00,44.3,41.8,30.07,NE,53,0.0,0.0,91,0.00,,---,0.00,VWS V14.01,2013-06-19 06:14:00,
2013-06-19 02:19:00,43.9,41.5,30.08,NE,53,0.0,0.0,91,0.00,,---,0.00,VWS V14.01,2013-06-19 06:19:00,
2013-06-19 02:24:00,43.6,41.2,30.08,NE,53,0.0,0.0,91,0.00,,---,0.00,VWS V14.01,2013-06-19 06:24:00,
2013-06-19 02:29:00,43.6,41.7,30.08,NE,53,0.0,0.0,93,0.00,,---,0.00,VWS V14.01,2013-06-19 06:29:00,
2013-06-19 02:34:00,43.5,41.6,30.08,NE,53,0.0,0.0,93,0.00,,---,0.00,VWS V14.01,2013-06-19 06:34:00,
2013-06-19 02:39:00,43.4,41.5,30.08,NE,53,0.0,0.0,93,0.00,,---,0.00,VWS V14.01,2013-06-19 06:39:00,
2013-06-19 02:45:00,43.6,42.0,30.08,NE,53,0.0,0.0,94,0.00,,---,0.00,VWS V14.01,2013-06-19 06:45:00,
2013-06-19 02:50:00,43.9,42.3,30.08,NE,53,0.0,0.0,94,0.00,,---,0.00,VWS V14.01,2013-06-19 06:50:00,
2013-06-19 02:55:00,44.0,42.4,30.09,NE,53,0.0,0.0,94,0.00,,---,0.00,VWS V14.01,2013-06-19 06:55:00,
2013-06-19 03:00:00,44.0,42.4,30.09,NE,53,0.0,0.0,94,0.00,,---,0.00,VWS V14.01,2013-06-19 07:00:00,
2013-06-19 03:05:00,44.2,42.6,30.08,NE,53,0.0,0.0,94,0.00,,---,0.00,VWS V14.01,2013-06-19 07:05:00,
2013-06-19 03:10:00,44.4,42.8,30.09,NE,53,1.0,1.0,94,0.00,,---,0.00,VWS V14.01,2013-06-19 07:10:00,
2013-06-19 03:15:00,44.4,42.8,30.09,NE,53,0.0,1.0,94,0.00,,---,0.00,VWS V14.01,2013-06-19 07:15:00,
2013-06-19 03:20:00,44.3,42.7,30.09,NE,53,0.0,1.0,94,0.00,,---,0.00,VWS V14.01,2013-06-19 07:20:00,
2013-06-19 03:25:00,44.2,42.6,30.08,NE,53,1.0,1.0,94,0.00,,---,0.00,VWS V14.01,2013-06-19 07:25:00,
2013-06-19 03:30:00,44.3,42.7,30.08,NE,53,0.0,1.0,94,0.00,,---,0.00,VWS V14.01,2013-06-19 07:30:00,
2013-06-19 03:35:00,44.2,42.6,30.08,NE,53,0.0,1.0,94,0.00,,---,0.00,VWS V14.01,2013-06-19 07:35:00,
2013-06-19 03:40:00,44.1,42.5,30.08,NE,48,1.0,1.0,94,0.00,,---,0.00,VWS V14.01,2013-06-19 07:40:00,
2013-06-19 03:45:00,44.1,42.5,30.08,NE,49,1.0,1.0,94,0.00,,---,0.00,VWS V14.01,2013-06-19 07:45:00,
2013-06-19 03:50:00,44.1,42.5,30.08,NE,49,1.0,1.0,94,0.00,,---,0.00,VWS V14.01,2013-06-19 07:50:00,
2013-06-19 03:56:00,43.9,42.3,30.08,NE,49,0.0,1.0,94,0.00,,---,0.00,VWS V14.01,2013-06-19 07:56:00,
2013-06-19 04:00:00,44.0,42.4,30.08,NE,53,0.0,0.0,94,0.00,,---,0.00,VWS V14.01,2013-06-19 08:00:00,
2013-06-19 04:01:00,43.4,41.5,30.08,NE,49,0.0,0.0,93,0.00,,---,0.00,VWS V14.01,2013-06-19 08:01:00,
2013-06-19 04:06:00,43.0,41.4,30.08,NE,49,0.0,0.0,94,0.00,,---,0.00,VWS V14.01,2013-06-19 08:06:00,
2013-06-19 04:11:00,42.8,41.2,30.08,NE,48,0.0,0.0,94,0.00,,---,0.00,VWS V14.01,2013-06-19 08:11:00,
2013-06-19 04:16:00,42.5,40.9,30.08,NE,49,0.0,0.0,94,0.00,,---,0.00,VWS V14.01,2013-06-19 08:16:00,
2013-06-19 04:21:00,42.2,40.6,30.09,NE,48,0.0,0.0,94,0.00,,---,0.00,VWS V14.01,2013-06-19 08:21:00,
2013-06-19 04:26:00,42.2,40.9,30.09,NE,48,0.0,0.0,95,0.00,,---,0.00,VWS V14.01,2013-06-19 08:26:00,
2013-06-19 04:31:00,42.0,40.7,30.09,NE,48,0.0,0.0,95,0.00,,---,0.00,VWS V14.01,2013-06-19 08:31:00,
2013-06-19 04:36:00,42.2,40.9,30.09,NE,48,0.0,0.0,95,0.00,,---,0.00,VWS V14.01,2013-06-19 08:36:00,
2013-06-19 04:41:00,42.3,41.0,30.09,NE,49,0.0,0.0,95,0.00,,---,0.00,VWS V14.01,2013-06-19 08:41:00,
2013-06-19 04:46:00,42.0,40.7,30.09,NE,49,0.0,0.0,95,0.00,,---,0.00,VWS V14.01,2013-06-19 08:46:00,
2013-06-19 04:52:00,41.9,40.6,30.10,NE,48,0.0,0.0,95,0.00,,---,0.00,VWS V14.01,2013-06-19 08:52:00,
2013-06-19 04:57:00,42.0,40.9,30.10,NE,48,0.0,1.0,96,0.00,,---,0.00,VWS V14.01,2013-06-19 08:57:00,
2013-06-19 05:00:00,43.5,41.6,30.08,NE,48,0.0,1.0,93,0.00,,---,0.00,VWS V14.01,2013-06-19 09:00:00,
2013-06-19 05:02:00,42.2,41.1,30.10,NE,49,1.0,1.0,96,0.00,,---,0.00,VWS V14.01,2013-06-19 09:02:00,
2013-06-19 05:07:00,42.8,41.7,30.10,NE,48,2.0,2.0,96,0.00,,---,0.00,VWS V14.01,2013-06-19 09:07:00,
2013-06-19 05:12:00,43.3,42.2,30.10,NE,48,1.0,2.0,96,0.00,,---,0.00,VWS V14.01,2013-06-19 09:12:00,
2013-06-19 05:17:00,43.7,42.6,30.10,NE,49,1.0,2.0,96,0.00,,---,0.00,VWS V14.01,2013-06-19 09:17:00,
2013-06-19 05:22:00,43.8,42.7,30.10,NE,48,1.0,2.0,96,0.00,,---,0.00,VWS V14.01,2013-06-19 09:22:00,
2013-06-19 05:27:00,43.7,42.4,30.10,NE,48,2.0,2.0,95,0.00,,---,0.00,VWS V14.01,2013-06-19 09:27:00,
2013-06-19 05:32:00,43.7,42.4,30.10,NE,49,0.0,2.0,95,0.00,,---,0.00,VWS V14.01,2013-06-19 09:32:00,
2013-06-19 05:37:00,43.6,42.3,30.11,NE,49,1.0,2.0,95,0.00,,---,0.00,VWS V14.01,2013-06-19 09:37:00,
2013-06-19 05:42:00,43.6,42.3,30.11,NE,49,1.0,2.0,95,0.00,,---,0.00,VWS V14.01,2013-06-19 09:42:00,
2013-06-19 05:47:00,43.6,42.3,30.11,NE,49,1.0,2.0,95,0.00,,---,0.00,VWS V14.01,2013-06-19 09:47:00,
2013-06-19 05:52:00,43.7,42.4,30.11,NE,49,1.0,2.0,95,0.00,,---,0.00,VWS V14.01,2013-06-19 09:52:00,
2013-06-19 05:57:00,43.7,42.4,30.11,NE,48,1.0,2.0,95,0.00,,---,0.00,VWS V14.01,2013-06-19 09:57:00,
2013-06-19 06:00:00,42.1,41.0,30.10,NE,49,0.0,1.0,96,0.00,,---,0.00,VWS V14.01,2013-06-19 10:00:00,
2013-06-19 06:02:00,43.8,42.5,30.11,NNE,32,1.0,1.0,95,0.00,,---,0.00,VWS V14.01,2013-06-19 10:02:00,
2013-06-19 06:08:00,43.9,42.6,30.12,NNE,32,1.0,1.0,95,0.00,,---,0.00,VWS V14.01,2013-06-19 10:08:00,
2013-06-19 06:13:00,43.9,42.6,30.12,NNE,32,1.0,2.0,95,0.00,,---,0.00,VWS V14.01,2013-06-19 10:13:00,
2013-06-19 06:18:00,44.0,42.7,30.12,NNE,32,1.0,2.0,95,0.00,,---,0.00,VWS V14.01,2013-06-19 10:18:00,
2013-06-19 06:23:00,44.4,43.1,30.12,NNE,32,0.0,2.0,95,0.00,,---,0.00,VWS V14.01,2013-06-19 10:23:00,
2013-06-19 06:28:00,45.1,44.0,30.13,NNE,27,2.0,2.0,96,0.00,,---,0.00,VWS V14.01,2013-06-19 10:28:00,
2013-06-19 06:33:00,45.7,44.3,30.13,NE,39,0.0,2.0,95,0.00,,---,0.00,VWS V14.01,2013-06-19 10:33:00,
2013-06-19 06:38:00,46.4,44.8,30.13,NNE,25,1.0,2.0,94,0.00,,---,0.00,VWS V14.01,2013-06-19 10:38:00,
2013-06-19 06:43:00,47.1,45.2,30.13,NNE,29,1.0,3.0,93,0.00,,---,0.00,VWS V14.01,2013-06-19 10:43:00,
2013-06-19 06:48:00,47.7,45.2,30.12,NNE,27,2.0,3.0,91,0.00,,---,0.00,VWS V14.01,2013-06-19 10:48:00,
2013-06-19 06:53:00,48.2,45.1,30.13,NNE,16,2.0,4.0,89,0.00,,---,0.00,VWS V14.01,2013-06-19 10:53:00,
2013-06-19 06:58:00,48.7,45.3,30.13,North,6,2.0,4.0,88,0.00,,---,0.00,VWS V14.01,2013-06-19 10:58:00,
2013-06-19 07:00:00,43.7,42.4,30.11,NE,49,1.0,2.0,95,0.00,,---,0.00,VWS V14.01,2013-06-19 11:00:00,
2013-06-19 07:03:00,49.2,45.5,30.14,NNE,20,2.0,3.0,87,0.00,,---,0.00,VWS V14.01,2013-06-19 11:03:00,
2013-06-19 07:08:00,49.6,45.6,30.14,North,7,2.0,4.0,86,0.00,,---,0.00,VWS V14.01,2013-06-19 11:08:00,
2013-06-19 07:14:00,50.0,46.0,30.14,North,8,2.0,4.0,86,0.00,,---,0.00,VWS V14.01,2013-06-19 11:14:00,
2013-06-19 07:19:00,50.6,46.3,30.14,ENE,57,3.0,4.0,85,0.00,,---,0.00,VWS V14.01,2013-06-19 11:19:00,
2013-06-19 07:24:00,51.2,45.9,30.14,NE,47,6.0,7.0,82,0.00,,---,0.00,VWS V14.01,2013-06-19 11:24:00,
2013-06-19 07:29:00,51.6,46.0,30.14,NE,46,3.0,7.0,81,0.00,,---,0.00,VWS V14.01,2013-06-19 11:29:00,
2013-06-19 07:34:00,51.9,45.6,30.14,NE,48,4.0,7.0,79,0.00,,---,0.00,VWS V14.01,2013-06-19 11:34:00,
2013-06-19 07:39:00,52.2,45.9,30.14,NE,51,4.0,9.0,79,0.00,,---,0.00,VWS V14.01,2013-06-19 11:39:00,
2013-06-19 07:44:00,52.6,46.0,30.14,NE,49,4.0,9.0,78,0.00,,---,0.00,VWS V14.01,2013-06-19 11:44:00,
2013-06-19 07:49:00,52.9,46.2,30.14,NE,46,5.0,9.0,78,0.00,,---,0.00,VWS V14.01,2013-06-19 11:49:00,
2013-06-19 07:54:00,53.3,46.6,30.14,NE,40,5.0,9.0,78,0.00,,---,0.00,VWS V14.01,2013-06-19 11:54:00,
2013-06-19 07:59:00,53.6,46.6,30.14,NE,53,7.0,9.0,77,0.00,,---,0.00,VWS V14.01,2013-06-19 11:59:00,
2013-06-19 08:00:00,48.9,45.5,30.13,NE,39,1.0,4.0,88,0.00,,---,0.00,VWS V14.01,2013-06-19 12:00:00,
2013-06-19 08:04:00,54.0,46.6,30.14,ENE,77,5.0,7.0,76,0.00,,---,0.00,VWS V14.01,2013-06-19 12:04:00,
2013-06-19 08:09:00,54.6,46.8,30.15,ENE,72,4.0,7.0,75,0.00,,---,0.00,VWS V14.01,2013-06-19 12:09:00,
2013-06-19 08:14:00,55.1,47.3,30.15,NE,49,4.0,7.0,75,0.00,,---,0.00,VWS V14.01,2013-06-19 12:14:00,
2013-06-19 08:19:00,55.8,47.7,30.15,NE,48,5.0,7.0,74,0.00,,---,0.00,VWS V14.01,2013-06-19 12:19:00,
2013-06-19 08:25:00,56.3,47.0,30.16,NE,39,3.0,7.0,71,0.00,,---,0.00,VWS V14.01,2013-06-19 12:25:00,
2013-06-19 08:30:00,56.7,47.4,30.16,ENE,64,3.0,7.0,71,0.00,,---,0.00,VWS V14.01,2013-06-19 12:30:00,
2013-06-19 08:35:00,57.2,47.1,30.16,NE,45,6.0,8.0,69,0.00,,---,0.00,VWS V14.01,2013-06-19 12:35:00,
2013-06-19 08:40:00,57.5,47.0,30.16,NE,51,6.0,8.0,68,0.00,,---,0.00,VWS V14.01,2013-06-19 12:40:00,
2013-06-19 08:45:00,57.9,47.4,30.16,NE,41,6.0,8.0,68,0.00,,---,0.00,VWS V14.01,2013-06-19 12:45:00,
2013-06-19 08:50:00,58.1,46.8,30.16,NE,54,6.0,9.0,66,0.00,,---,0.00,VWS V14.01,2013-06-19 12:50:00,
2013-06-19 08:55:00,58.7,48.2,30.16,ENE,74,4.0,9.0,68,0.00,,---,0.00,VWS V14.01,2013-06-19 12:55:00,
2013-06-19 09:00:00,58.9,48.0,30.16,NE,44,5.0,9.0,67,0.00,,---,0.00,VWS V14.01,2013-06-19 13:00:00,
2013-06-19 09:05:00,59.4,47.7,30.16,ENE,58,8.0,8.0,65,0.00,,---,0.00,VWS V14.01,2013-06-19 13:05:00,
2013-06-19 09:10:00,59.7,47.9,30.16,NE,43,1.0,8.0,65,0.00,,---,0.00,VWS V14.01,2013-06-19 13:10:00,
2013-06-19 09:15:00,60.0,47.0,30.16,ENE,60,6.0,8.0,62,0.00,,---,0.00,VWS V14.01,2013-06-19 13:15:00,
2013-06-19 09:20:00,60.0,47.0,30.16,East,85,3.0,8.0,62,0.00,,---,0.00,VWS V14.01,2013-06-19 13:20:00,
2013-06-19 09:25:00,60.2,47.6,30.16,NE,47,5.0,8.0,63,0.00,,---,0.00,VWS V14.01,2013-06-19 13:25:00,
2013-06-19 09:30:00,60.4,47.3,30.16,East,81,6.0,8.0,62,0.00,,---,0.00,VWS V14.01,2013-06-19 13:30:00,
2013-06-19 09:35:00,60.3,48.1,30.16,ENE,67,7.0,10.0,64,0.00,,---,0.00,VWS V14.01,2013-06-19 13:35:00,
2013-06-19 09:41:00,60.5,48.3,30.16,East,90,3.0,10.0,64,0.00,,---,0.00,VWS V14.01,2013-06-19 13:41:00,
2013-06-19 09:46:00,60.8,48.1,30.16,NE,44,5.0,10.0,63,0.00,,---,0.00,VWS V14.01,2013-06-19 13:46:00,
2013-06-19 09:51:00,61.2,49.3,30.15,NE,44,6.0,10.0,65,0.00,,---,0.00,VWS V14.01,2013-06-19 13:51:00,
2013-06-19 09:56:00,61.5,47.5,30.15,NE,37,5.0,10.0,60,0.00,,---,0.00,VWS V14.01,2013-06-19 13:56:00,
2013-06-19 10:00:00,59.0,48.1,30.16,ENE,70,4.0,9.0,67,0.00,,---,0.00,VWS V14.01,2013-06-19 14:00:00,
2013-06-19 10:01:00,61.8,49.1,30.15,NE,43,6.0,6.0,63,0.00,,---,0.00,VWS V14.01,2013-06-19 14:01:00,
2013-06-19 10:06:00,62.4,48.8,30.15,ESE,115,6.0,9.0,61,0.00,,---,0.00,VWS V14.01,2013-06-19 14:06:00,
2013-06-19 10:11:00,62.6,48.1,30.15,SE,130,3.0,9.0,59,0.00,,---,0.00,VWS V14.01,2013-06-19 14:11:00,
2013-06-19 10:16:00,62.8,47.8,30.15,ENE,62,7.0,9.0,58,0.00,,---,0.00,VWS V14.01,2013-06-19 14:16:00,
2013-06-19 10:21:00,63.2,48.2,30.15,ESE,121,4.0,9.0,58,0.00,,---,0.00,VWS V14.01,2013-06-19 14:21:00,
2013-06-19 10:27:00,63.6,48.1,30.15,ENE,63,4.0,9.0,57,0.00,,---,0.00,VWS V14.01,2013-06-19 14:27:00,
2013-06-19 10:32:00,64.2,50.0,30.15,ESE,105,4.0,9.0,60,0.00,,---,0.00,VWS V14.01,2013-06-19 14:32:00,
2013-06-19 10:37:00,64.6,49.5,30.15,NE,53,4.0,9.0,58,0.00,,---,0.00,VWS V14.01,2013-06-19 14:37:00,
2013-06-19 10:42:00,64.9,48.8,30.15,SSW,193,2.0,9.0,56,0.00,,---,0.00,VWS V14.01,2013-06-19 14:42:00,
2013-06-19 10:47:00,64.8,48.3,30.15,SE,142,1.0,9.0,55,0.00,,---,0.00,VWS V14.01,2013-06-19 14:47:00,
2013-06-19 10:52:00,65.3,48.7,30.15,ESE,116,4.0,9.0,55,0.00,,---,0.00,VWS V14.01,2013-06-19 14:52:00,
2013-06-19 10:58:00,65.7,48.6,30.15,East,94,4.0,9.0,54,0.00,,---,0.00,VWS V14.01,2013-06-19 14:58:00,
2013-06-19 11:00:00,61.7,48.6,30.16,NE,40,5.0,10.0,62,0.00,,---,0.00,VWS V14.01,2013-06-19 15:00:00,
2013-06-19 11:03:00,65.9,49.3,30.15,SE,135,6.0,6.0,55,0.00,,---,0.00,VWS V14.01,2013-06-19 15:03:00,
2013-06-19 11:08:00,65.8,48.7,30.15,East,85,1.0,7.0,54,0.00,,---,0.00,VWS V14.01,2013-06-19 15:08:00,
2013-06-19 11:13:00,66.7,50.0,30.15,SW,217,2.0,7.0,55,0.00,,---,0.00,VWS V14.01,2013-06-19 15:13:00,
2013-06-19 11:18:00,66.8,50.6,30.15,WNW,292,1.0,7.0,56,0.00,,---,0.00,VWS V14.01,2013-06-19 15:18:00,
2013-06-19 11:23:00,67.3,49.1,30.15,ESE,110,2.0,7.0,52,0.00,,---,0.00,VWS V14.01,2013-06-19 15:23:00,
2013-06-19 11:28:00,67.7,50.0,30.15,SSE,157,0.0,7.0,53,0.00,,---,0.00,VWS V14.01,2013-06-19 15:28:00,
2013-06-19 11:33:00,68.1,49.8,30.15,ESE,113,3.0,7.0,52,0.00,,---,0.00,VWS V14.01,2013-06-19 15:33:00,
2013-06-19 11:38:00,67.8,48.5,30.15,NE,50,5.0,8.0,50,0.00,,---,0.00,VWS V14.01,2013-06-19 15:38:00,
2013-06-19 11:43:00,67.2,49.0,30.15,ESE,121,3.0,8.0,52,0.00,,---,0.00,VWS V14.01,2013-06-19 15:43:00,
2013-06-19 11:48:00,67.3,48.6,30.16,ENE,58,0.0,8.0,51,0.00,,---,0.00,VWS V14.01,2013-06-19 15:48:00,
2013-06-19 11:53:00,67.7,50.0,30.15,ENE,58,2.0,8.0,53,0.00,,---,0.00,VWS V14.01,2013-06-19 15:53:00,
2013-06-19 11:58:00,67.5,46.6,30.15,East,96,4.0,8.0,47,0.00,,---,0.00,VWS V14.01,2013-06-19 15:58:00,
2013-06-19 12:00:00,65.8,49.2,30.15,SE,131,3.0,9.0,55,0.00,,---,0.00,VWS V14.01,2013-06-19 16:00:00,
2013-06-19 12:03:00,67.1,46.8,30.15,ENE,63,4.0,7.0,48,0.00,,---,0.00,VWS V14.01,2013-06-19 16:03:00,
2013-06-19 12:08:00,67.2,46.9,30.15,NNW,335,3.0,7.0,48,0.00,,---,0.00,VWS V14.01,2013-06-19 16:08:00,
2013-06-19 12:14:00,67.7,47.3,30.15,WNW,293,0.0,7.0,48,0.00,,---,0.00,VWS V14.01,2013-06-19 16:14:00,
2013-06-19 12:19:00,68.3,46.7,30.15,ESE,123,3.0,7.0,46,0.00,,---,0.00,VWS V14.01,2013-06-19 16:19:00,
2013-06-19 12:24:00,68.9,47.9,30.15,SSE,162,2.0,7.0,47,0.00,,---,0.00,VWS V14.01,2013-06-19 16:24:00,
2013-06-19 12:29:00,68.7,49.3,30.15,North,11,4.0,7.0,50,0.00,,---,0.00,VWS V14.01,2013-06-19 16:29:00,
2013-06-19 12:34:00,68.3,47.9,30.15,West,273,1.0,7.0,48,0.00,,---,0.00,VWS V14.01,2013-06-19 16:34:00,
2013-06-19 12:39:00,68.5,48.6,30.15,NE,34,4.0,7.0,49,0.00,,---,0.00,VWS V14.01,2013-06-19 16:39:00,
2013-06-19 12:44:00,68.8,48.3,30.15,ESE,115,7.0,13.0,48,0.00,,---,0.00,VWS V14.01,2013-06-19 16:44:00,
2013-06-19 12:49:00,68.8,48.9,30.15,East,92,3.0,13.0,49,0.00,,---,0.00,VWS V14.01,2013-06-19 16:49:00,
2013-06-19 12:54:00,68.5,48.1,30.15,East,86,6.0,13.0,48,0.00,,---,0.00,VWS V14.01,2013-06-19 16:54:00,
2013-06-19 12:59:00,68.4,48.0,30.15,ENE,61,1.0,13.0,48,0.00,,---,0.00,VWS V14.01,2013-06-19 16:59:00,
2013-06-19 13:00:00,67.3,47.5,30.15,ENE,65,5.0,8.0,49,0.00,,---,0.00,VWS V14.01,2013-06-19 17:00:00,
2013-06-19 13:04:00,68.8,48.3,30.15,ESE,120,5.0,7.0,48,0.00,,---,0.00,VWS V14.01,2013-06-19 17:04:00,
2013-06-19 13:09:00,69.0,47.4,30.15,East,95,6.0,8.0,46,0.00,,---,0.00,VWS V14.01,2013-06-19 17:09:00,
2013-06-19 13:14:00,69.2,48.7,30.15,SW,214,4.0,8.0,48,0.00,,---,0.00,VWS V14.01,2013-06-19 17:14:00,
2013-06-19 13:19:00,69.6,49.1,30.15,East,95,1.0,8.0,48,0.00,,---,0.00,VWS V14.01,2013-06-19 17:19:00,
2013-06-19 13:25:00,70.1,50.6,30.15,ENE,61,2.0,8.0,50,0.00,,---,0.00,VWS V14.01,2013-06-19 17:25:00,
2013-06-19 13:30:00,69.3,48.2,30.14,SE,135,1.0,8.0,47,0.00,,---,0.00,VWS V14.01,2013-06-19 17:30:00,
2013-06-19 13:35:00,69.8,49.8,30.14,WNW,297,1.0,8.0,49,0.00,,---,0.00,VWS V14.01,2013-06-19 17:35:00,
2013-06-19 13:40:00,70.3,50.3,30.14,NE,36,5.0,8.0,49,0.00,,---,0.00,VWS V14.01,2013-06-19 17:40:00,
2013-06-19 13:45:00,70.1,52.2,30.13,ENE,60,5.0,10.0,53,0.00,,---,0.00,VWS V14.01,2013-06-19 17:45:00,
2013-06-19 13:50:00,69.8,49.2,30.13,ESE,111,8.0,10.0,48,0.00,,---,0.00,VWS V14.01,2013-06-19 17:50:00,
2013-06-19 13:55:00,69.7,49.7,30.13,ENE,77,4.0,10.0,49,0.00,,---,0.00,VWS V14.01,2013-06-19 17:55:00,
2013-06-19 14:00:00,69.7,48.6,30.13,ENE,58,3.0,10.0,47,0.00,,---,0.00,VWS V14.01,2013-06-19 18:00:00,
2013-06-19 14:05:00,69.6,47.9,30.13,ENE,72,2.0,5.0,46,0.00,,---,0.00,VWS V14.01,2013-06-19 18:05:00,
2013-06-19 14:10:00,69.9,48.8,30.13,NE,37,3.0,5.0,47,0.00,,---,0.00,VWS V14.01,2013-06-19 18:10:00,
2013-06-19 14:15:00,70.0,48.9,30.12,East,99,4.0,10.0,47,0.00,,---,0.00,VWS V14.01,2013-06-19 18:15:00,
2013-06-19 14:20:00,70.2,49.6,30.12,East,86,5.0,10.0,48,0.00,,---,0.00,VWS V14.01,2013-06-19 18:20:00,
2013-06-19 14:25:00,70.3,48.0,30.12,ENE,75,5.0,10.0,45,0.00,,---,0.00,VWS V14.01,2013-06-19 18:25:00,
2013-06-19 14:30:00,70.3,48.6,30.12,South,174,2.0,10.0,46,0.00,,---,0.00,VWS V14.01,2013-06-19 18:30:00,
2013-06-19 14:35:00,70.9,46.7,30.12,SE,141,4.0,10.0,42,0.00,,---,0.00,VWS V14.01,2013-06-19 18:35:00,
2013-06-19 14:40:00,71.2,49.4,30.12,South,170,5.0,10.0,46,0.00,,---,0.00,VWS V14.01,2013-06-19 18:40:00,
2013-06-19 14:46:00,71.5,47.2,30.12,NE,44,3.0,10.0,42,0.00,,---,0.00,VWS V14.01,2013-06-19 18:46:00,
2013-06-19 14:51:00,71.4,48.4,30.12,NNW,332,3.0,10.0,44,0.00,,---,0.00,VWS V14.01,2013-06-19 18:51:00,
2013-06-19 14:56:00,71.4,47.8,30.12,NW,314,3.0,10.0,43,0.00,,---,0.00,VWS V14.01,2013-06-19 18:56:00,
2013-06-19 15:00:00,69.7,48.6,30.13,NE,49,3.0,10.0,47,0.00,,---,0.00,VWS V14.01,2013-06-19 19:00:00,
2013-06-19 15:01:00,71.9,48.8,30.12,SSE,149,2.0,2.0,44,0.00,,---,0.00,VWS V14.01,2013-06-19 19:01:00,
2013-06-19 15:06:00,72.4,48.0,30.11,East,98,3.0,5.0,42,0.00,,---,0.00,VWS V14.01,2013-06-19 19:06:00,
2013-06-19 15:11:00,72.3,49.8,30.12,East,88,7.0,7.0,45,0.00,,---,0.00,VWS V14.01,2013-06-19 19:11:00,
2013-06-19 15:16:00,71.9,49.4,30.12,East,97,6.0,13.0,45,0.00,,---,0.00,VWS V14.01,2013-06-19 19:16:00,
2013-06-19 15:21:00,71.6,47.9,30.12,WNW,297,6.0,13.0,43,0.00,,---,0.00,VWS V14.01,2013-06-19 19:21:00,
2013-06-19 15:26:00,71.3,49.5,30.12,WNW,302,5.0,13.0,46,0.00,,---,0.00,VWS V14.01,2013-06-19 19:26:00,
2013-06-19 15:31:00,71.9,50.0,30.12,ESE,108,7.0,13.0,46,0.00,,---,0.00,VWS V14.01,2013-06-19 19:31:00,
2013-06-19 15:36:00,72.2,47.9,30.12,SE,134,2.0,13.0,42,0.00,,---,0.00,VWS V14.01,2013-06-19 19:36:00,
2013-06-19 15:41:00,72.5,47.5,30.11,WSW,239,5.0,13.0,41,0.00,,---,0.00,VWS V14.01,2013-06-19 19:41:00,
2013-06-19 15:47:00,72.3,48.6,30.11,West,259,2.0,13.0,43,0.00,,---,0.00,VWS V14.01,2013-06-19 19:47:00,
2013-06-19 15:52:00,72.7,48.3,30.11,South,176,8.0,13.0,42,0.00,,---,0.00,VWS V14.01,2013-06-19 19:52:00,
2013-06-19 15:57:00,72.9,46.5,30.11,WSW,255,2.0,13.0,39,0.00,,---,0.00,VWS V14.01,2013-06-19 19:57:00,
2013-06-19 16:00:00,71.8,48.7,30.12,ESE,115,2.0,10.0,44,0.00,,---,0.00,VWS V14.01,2013-06-19 20:00:00,
2013-06-19 16:02:00,72.9,47.2,30.11,SW,219,3.0,4.0,40,0.00,,---,0.00,VWS V14.01,2013-06-19 20:02:00,
2013-06-19 16:07:00,72.7,48.9,30.11,WNW,291,3.0,9.0,43,0.00,,---,0.00,VWS V14.01,2013-06-19 20:07:00,
2013-06-19 16:12:00,72.8,52.0,30.11,SSE,149,2.0,9.0,48,0.00,,---,0.00,VWS V14.01,2013-06-19 20:12:00,
2013-06-19 16:17:00,73.3,48.8,30.10,South,191,0.0,9.0,42,0.00,,---,0.00,VWS V14.01,2013-06-19 20:17:00,
2013-06-19 16:22:00,73.8,49.9,30.10,SSE,148,4.0,9.0,43,0.00,,---,0.00,VWS V14.01,2013-06-19 20:22:00,
2013-06-19 16:27:00,73.8,49.9,30.10,SSE,159,3.0,9.0,43,0.00,,---,0.00,VWS V14.01,2013-06-19 20:27:00,
2013-06-19 16:32:00,73.8,52.3,30.10,SE,135,3.0,9.0,47,0.00,,---,0.00,VWS V14.01,2013-06-19 20:32:00,
2013-06-19 16:37:00,73.4,50.2,30.10,ESE,121,5.0,9.0,44,0.00,,---,0.00,VWS V14.01,2013-06-19 20:37:00,
2013-06-19 16:42:00,73.0,49.8,30.10,NNE,29,1.0,9.0,44,0.00,,---,0.00,VWS V14.01,2013-06-19 20:42:00,
2013-06-19 16:47:00,72.9,50.3,30.10,SW,218,5.0,9.0,45,0.00,,---,0.00,VWS V14.01,2013-06-19 20:47:00,
2013-06-19 16:53:00,72.9,49.7,30.10,West,263,5.0,9.0,44,0.00,,---,0.00,VWS V14.01,2013-06-19 20:53:00,
2013-06-19 16:58:00,72.3,49.2,30.10,SSW,205,3.0,9.0,44,0.00,,---,0.00,VWS V14.01,2013-06-19 20:58:00,
2013-06-19 17:00:00,72.9,47.2,30.11,West,281,1.0,13.0,40,0.00,,---,0.00,VWS V14.01,2013-06-19 21:00:00,
2013-06-19 17:03:00,72.7,49.5,30.10,WNW,283,3.0,4.0,44,0.00,,---,0.00,VWS V14.01,2013-06-19 21:03:00,
2013-06-19 17:08:00,73.2,50.6,30.10,SW,222,3.0,5.0,45,0.00,,---,0.00,VWS V14.01,2013-06-19 21:08:00,
2013-06-19 17:13:00,73.5,49.0,30.10,SSW,208,3.0,9.0,42,0.00,,---,0.00,VWS V14.01,2013-06-19 21:13:00,
2013-06-19 17:18:00,73.6,48.5,30.09,East,88,2.0,9.0,41,0.00,,---,0.00,VWS V14.01,2013-06-19 21:18:00,
2013-06-19 17:23:00,73.6,51.0,30.09,ENE,77,2.0,9.0,45,0.00,,---,0.00,VWS V14.01,2013-06-19 21:23:00,
2013-06-19 17:28:00,73.5,48.4,30.10,ESE,111,4.0,9.0,41,0.00,,---,0.00,VWS V14.01,2013-06-19 21:28:00,
2013-06-19 17:33:00,74.0,50.1,30.09,SW,227,4.0,9.0,43,0.00,,---,0.00,VWS V14.01,2013-06-19 21:33:00,
2013-06-19 17:38:00,73.9,48.1,30.09,WSW,249,2.0,9.0,40,0.00,,---,0.00,VWS V14.01,2013-06-19 21:38:00,
2013-06-19 17:43:00,74.2,48.3,30.09,SW,224,2.0,9.0,40,0.00,,---,0.00,VWS V14.01,2013-06-19 21:43:00,
2013-06-19 17:48:00,74.2,48.3,30.09,SSW,211,5.0,9.0,40,0.00,,---,0.00,VWS V14.01,2013-06-19 21:48:00,
2013-06-19 17:54:00,74.4,48.5,30.09,WNW,293,2.0,9.0,40,0.00,,---,0.00,VWS V14.01,2013-06-19 21:54:00,
2013-06-19 17:59:00,74.4,49.2,30.09,West,271,1.0,9.0,41,0.00,,---,0.00,VWS V14.01,2013-06-19 21:59:00,
2013-06-19 18:00:00,72.5,49.4,30.10,West,278,2.0,9.0,44,0.00,,---,0.00,VWS V14.01,2013-06-19 22:00:00,
2013-06-19 18:04:00,74.9,50.9,30.09,West,264,1.0,3.0,43,0.00,,---,0.00,VWS V14.01,2013-06-19 22:04:00,
2013-06-19 18:09:00,75.3,48.7,30.09,East,98,4.0,5.0,39,0.00,,---,0.00,VWS V14.01,2013-06-19 22:09:00,
2013-06-19 18:14:00,74.8,49.5,30.08,SSW,195,3.0,7.0,41,0.00,,---,0.00,VWS V14.01,2013-06-19 22:14:00,
2013-06-19 18:19:00,74.9,49.0,30.08,SE,131,1.0,7.0,40,0.00,,---,0.00,VWS V14.01,2013-06-19 22:19:00,
2013-06-19 18:24:00,74.8,48.9,30.08,SE,129,4.0,7.0,40,0.00,,---,0.00,VWS V14.01,2013-06-19 22:24:00,
2013-06-19 18:29:00,74.7,48.8,30.08,SSE,153,1.0,7.0,40,0.00,,---,0.00,VWS V14.01,2013-06-19 22:29:00,
2013-06-19 18:34:00,74.9,49.0,30.08,SW,228,4.0,7.0,40,0.00,,---,0.00,VWS V14.01,2013-06-19 22:34:00,
2013-06-19 18:39:00,74.3,48.4,30.08,West,264,1.0,7.0,40,0.00,,---,0.00,VWS V14.01,2013-06-19 22:39:00,
2013-06-19 18:44:00,74.7,50.1,30.08,SSW,199,4.0,8.0,42,0.00,,---,0.00,VWS V14.01,2013-06-19 22:44:00,
2013-06-19 18:49:00,74.4,48.5,30.08,ESE,121,2.0,8.0,40,0.00,,---,0.00,VWS V14.01,2013-06-19 22:49:00,
2013-06-19 18:54:00,74.8,50.2,30.08,SSW,201,5.0,8.0,42,0.00,,---,0.00,VWS V14.01,2013-06-19 22:54:00,
2013-06-19 19:00:00,74.9,50.9,30.08,SW,222,2.0,8.0,43,0.00,,---,0.00,VWS V14.01,2013-06-19 23:00:00,
2013-06-19 19:05:00,74.8,51.5,30.08,SSE,159,3.0,5.0,44,0.00,,---,0.00,VWS V14.01,2013-06-19 23:05:00,
2013-06-19 19:10:00,74.8,50.2,30.08,SSW,211,3.0,6.0,42,0.00,,---,0.00,VWS V14.01,2013-06-19 23:10:00,
2013-06-19 19:15:00,74.9,50.9,30.09,SSW,203,4.0,6.0,43,0.00,,---,0.00,VWS V14.01,2013-06-19 23:15:00,
2013-06-19 19:20:00,74.5,49.9,30.09,SSW,211,2.0,6.0,42,0.00,,---,0.00,VWS V14.01,2013-06-19 23:20:00,
2013-06-19 19:25:00,74.2,49.7,30.09,SW,217,4.0,6.0,42,0.00,,---,0.00,VWS V14.01,2013-06-19 23:25:00,
2013-06-19 19:30:00,74.1,50.2,30.09,SSE,165,2.0,6.0,43,0.00,,---,0.00,VWS V14.01,2013-06-19 23:30:00,
2013-06-19 19:35:00,74.2,50.9,30.09,East,84,1.0,6.0,44,0.00,,---,0.00,VWS V14.01,2013-06-19 23:35:00,
2013-06-19 19:40:00,74.7,50.1,30.09,SSE,150,3.0,6.0,42,0.00,,---,0.00,VWS V14.01,2013-06-19 23:40:00,
2013-06-19 19:45:00,74.3,50.4,30.09,SE,126,3.0,6.0,43,0.00,,---,0.00,VWS V14.01,2013-06-19 23:45:00,
2013-06-19 19:51:00,73.9,50.6,30.09,ESE,114,2.0,6.0,44,0.00,,---,0.00,VWS V14.01,2013-06-19 23:51:00,
2013-06-19 19:56:00,73.8,49.9,30.09,ESE,118,1.0,6.0,43,0.00,,---,0.00,VWS V14.01,2013-06-19 23:56:00,
2013-06-19 20:00:00,74.9,50.9,30.08,South,188,2.0,8.0,43,0.00,,---,0.00,VWS V14.01,2013-06-20 00:00:00,
2013-06-19 20:01:00,73.3,50.1,30.09,WNW,297,1.0,1.0,44,0.00,,---,0.00,VWS V14.01,2013-06-20 00:01:00,
2013-06-19 20:06:00,72.2,51.4,30.09,WSW,245,0.0,2.0,48,0.00,,---,0.00,VWS V14.01,2013-06-20 00:06:00,
2013-06-19 20:11:00,72.0,52.4,30.09,SE,141,1.0,2.0,50,0.00,,---,0.00,VWS V14.01,2013-06-20 00:11:00,
2013-06-19 20:16:00,72.1,51.9,30.09,SSE,149,3.0,7.0,49,0.00,,---,0.00,VWS V14.01,2013-06-20 00:16:00,
2013-06-19 20:21:00,71.9,52.8,30.09,SE,132,6.0,7.0,51,0.00,,---,0.00,VWS V14.01,2013-06-20 00:21:00,
2013-06-19 20:27:00,71.8,53.2,30.10,SSE,155,4.0,7.0,52,0.00,,---,0.00,VWS V14.01,2013-06-20 00:27:00,
2013-06-19 20:32:00,71.3,54.3,30.09,SSE,149,8.0,9.0,55,0.00,,---,0.00,VWS V14.01,2013-06-20 00:32:00,
2013-06-19 20:37:00,70.9,54.4,30.10,ESE,121,4.0,9.0,56,0.00,,---,0.00,VWS V14.01,2013-06-20 00:37:00,
2013-06-19 20:42:00,70.4,54.9,30.10,SE,145,2.0,9.0,58,0.00,,---,0.00,VWS V14.01,2013-06-20 00:42:00,
2013-06-19 20:47:00,70.0,55.0,30.10,South,176,6.0,9.0,59,0.00,,---,0.00,VWS V14.01,2013-06-20 00:47:00,
2013-06-19 20:52:00,69.3,55.3,30.10,ESE,121,3.0,9.0,61,0.00,,---,0.00,VWS V14.01,2013-06-20 00:52:00,
2013-06-19 20:57:00,68.4,54.9,30.10,SE,136,6.0,9.0,62,0.00,,---,0.00,VWS V14.01,2013-06-20 00:57:00,
2013-06-19 21:00:00,73.3,50.1,30.09,WNW,297,1.0,6.0,44,0.00,,---,0.00,VWS V14.01,2013-06-20 01:00:00,
2013-06-19 21:02:00,67.8,55.2,30.10,ESE,114,7.0,7.0,64,0.00,,---,0.00,VWS V14.01,2013-06-20 01:02:00,
2013-06-19 21:07:00,67.4,54.8,30.10,SSW,201,4.0,8.0,64,0.00,,---,0.00,VWS V14.01,2013-06-20 01:07:00,
2013-06-19 21:12:00,67.1,55.0,30.11,SE,136,3.0,8.0,65,0.00,,---,0.00,VWS V14.01,2013-06-20 01:12:00,
2013-06-19 21:17:00,66.7,55.0,30.11,ESE,118,3.0,8.0,66,0.00,,---,0.00,VWS V14.01,2013-06-20 01:17:00,
2013-06-19 21:22:00,66.4,55.1,30.11,ESE,115,4.0,8.0,67,0.00,,---,0.00,VWS V14.01,2013-06-20 01:22:00,
2013-06-19 21:27:00,66.0,55.2,30.11,SE,127,3.0,8.0,68,0.00,,---,0.00,VWS V14.01,2013-06-20 01:27:00,
2013-06-19 21:32:00,65.6,54.8,30.11,ESE,117,2.0,8.0,68,0.00,,---,0.00,VWS V14.01,2013-06-20 01:32:00,
2013-06-19 21:37:00,65.4,55.0,30.11,SE,146,2.0,8.0,69,0.00,,---,0.00,VWS V14.01,2013-06-20 01:37:00,
2013-06-19 21:42:00,65.1,54.7,30.12,SE,146,2.0,8.0,69,0.00,,---,0.00,VWS V14.01,2013-06-20 01:42:00,
2013-06-19 21:48:00,64.8,54.8,30.12,SE,127,3.0,8.0,70,0.00,,---,0.00,VWS V14.01,2013-06-20 01:48:00,
2013-06-19 21:53:00,64.5,54.9,30.12,SE,131,2.0,8.0,71,0.00,,---,0.00,VWS V14.01,2013-06-20 01:53:00,
2013-06-19 21:58:00,64.2,54.6,30.12,SE,131,3.0,8.0,71,0.00,,---,0.00,VWS V14.01,2013-06-20 01:58:00,
2013-06-19 22:00:00,68.0,55.0,30.10,ESE,121,3.0,9.0,63,0.00,,---,0.00,VWS V14.01,2013-06-20 02:00:00,
2013-06-19 22:03:00,64.0,54.8,30.12,SE,134,2.0,3.0,72,0.00,,---,0.00,VWS V14.01,2013-06-20 02:03:00,
2013-06-19 22:08:00,63.7,54.5,30.12,SE,138,1.0,4.0,72,0.00,,---,0.00,VWS V14.01,2013-06-20 02:08:00,
2013-06-19 22:13:00,63.5,54.7,30.12,SSE,153,3.0,4.0,73,0.00,,---,0.00,VWS V14.01,2013-06-20 02:13:00,
2013-06-19 22:18:00,63.3,54.5,30.13,SSE,155,3.0,5.0,73,0.00,,---,0.00,VWS V14.01,2013-06-20 02:18:00,
2013-06-19 22:23:00,63.2,54.8,30.13,SSE,154,6.0,6.0,74,0.00,,---,0.00,VWS V14.01,2013-06-20 02:23:00,
2013-06-19 22:28:00,63.0,54.6,30.13,SSE,162,4.0,6.0,74,0.00,,---,0.00,VWS V14.01,2013-06-20 02:28:00,
2013-06-19 22:33:00,62.9,54.5,30.13,SSE,156,4.0,6.0,74,0.00,,---,0.00,VWS V14.01,2013-06-20 02:33:00,
2013-06-19 22:39:00,62.8,54.4,30.14,SSE,152,4.0,6.0,74,0.00,,---,0.00,VWS V14.01,2013-06-20 02:39:00,
2013-06-19 22:44:00,62.6,54.6,30.14,SSE,159,3.0,6.0,75,0.00,,---,0.00,VWS V14.01,2013-06-20 02:44:00,
2013-06-19 22:49:00,62.4,54.4,30.14,SE,125,3.0,6.0,75,0.00,,---,0.00,VWS V14.01,2013-06-20 02:49:00,
2013-06-19 22:54:00,62.2,54.2,30.14,SE,139,3.0,6.0,75,0.00,,---,0.00,VWS V14.01,2013-06-20 02:54:00,
2013-06-19 22:59:00,62.1,54.5,30.14,SE,144,2.0,6.0,76,0.00,,---,0.00,VWS V14.01,2013-06-20 02:59:00,
2013-06-19 23:00:00,64.1,54.5,30.12,SSE,162,2.0,8.0,71,0.00,,---,0.00,VWS V14.01,2013-06-20 03:00:00,
2013-06-19 23:04:00,61.9,54.3,30.14,ESE,119,2.0,4.0,76,0.00,,---,0.00,VWS V14.01,2013-06-20 03:04:00,
2013-06-19 23:10:00,61.6,54.3,30.14,SSE,148,2.0,5.0,77,0.00,,---,0.00,VWS V14.01,2013-06-20 03:10:00,
2013-06-19 23:15:00,61.4,54.1,30.14,SE,128,3.0,5.0,77,0.00,,---,0.00,VWS V14.01,2013-06-20 03:15:00,
2013-06-19 23:20:00,61.3,54.0,30.14,SSE,163,3.0,5.0,77,0.00,,---,0.00,VWS V14.01,2013-06-20 03:20:00,
2013-06-19 23:25:00,61.1,54.2,30.14,SSE,156,2.0,5.0,78,0.00,,---,0.00,VWS V14.01,2013-06-20 03:25:00,
2013-06-19 23:30:00,60.9,54.0,30.14,SSE,154,3.0,5.0,78,0.00,,---,0.00,VWS V14.01,2013-06-20 03:30:00,
2013-06-19 23:35:00,60.8,53.9,30.14,SE,146,3.0,5.0,78,0.00,,---,0.00,VWS V14.01,2013-06-20 03:35:00,
2013-06-19 23:40:00,60.7,53.8,30.14,ESE,114,2.0,5.0,78,0.00,,---,0.00,VWS V14.01,2013-06-20 03:40:00,
2013-06-19 23:46:00,60.5,54.0,30.14,SE,139,4.0,5.0,79,0.00,,---,0.00,VWS V14.01,2013-06-20 03:46:00,
2013-06-19 23:51:00,60.3,53.8,30.13,SE,132,3.0,6.0,79,0.00,,---,0.00,VWS V14.01,2013-06-20 03:51:00,
2013-06-19 23:56:00,60.1,53.6,30.13,ESE,117,4.0,6.0,79,0.00,,---,0.00,VWS V14.01,2013-06-20 03:56:00,